Waarnemingen

Advertentie
Mijn weer
Maastricht, Nederland (6380): temperatuur & dauwpunt: 15.07.2017 06:00:00 - 21.07.2017 06:00:00 (CEST)Maastricht, Nederland (6380): temperatuur 5cm: 15.07.2017 06:00:00 - 21.07.2017 06:00:00 (CEST)Maastricht, Nederland (6380): windsnelheid & windstoten: 15.07.2017 06:00:00 - 21.07.2017 06:00:00 (CEST)Maastricht, Nederland (6380): windrichting: 15.07.2017 06:00:00 - 21.07.2017 06:00:00 (CEST)Maastricht, Nederland (6380): luchtdruk: 15.07.2017 06:00:00 - 21.07.2017 06:00:00 (CEST)Maastricht, Nederland (6380): zicht: 15.07.2017 06:00:00 - 21.07.2017 06:00:00 (CEST)Maastricht, Nederland (6380): neerslag: 15.07.2017 06:00:00 - 21.07.2017 06:00:00 (CEST)
Datum & Tijd tt [°C] td [°C] tt 5cm [°C] ff [km/u] ff [kn] fx [km/u] fx [kn] dd ppp [hPa] vv [km] rr [mm]
21.07.2017 06:00:00 10,9 7,9 7,1 7 4 11 6 ZZO 1015,0 40 0,0
21.07.2017 05:00:00 10,8 7,7 7,5 8 4 - - Z 1014,7 10 0,0
21.07.2017 04:00:00 11,1 8,1 7,8 5 3 7 4 Z 1014,7 10 0,0
21.07.2017 03:00:00 11,3 8,2 8,8 5 3 7 4 Z 1014,7 10 0,0
21.07.2017 02:00:00 11,9 8,4 9,9 9 5 - - ZW 1014,9 10 0,0
21.07.2017 01:00:00 13,2 8,6 11,0 8 4 11 6 ZW 1014,8 10 0,0
21.07.2017 00:00:00 15,0 8,7 13,0 11 6 22 12 WZW 1014,4 10 0,0
20.07.2017 23:00:00 16,9 8,8 14,7 13 7 - - ZW 1013,8 10 0,0
20.07.2017 22:00:00 16,9 11,0 15,3 9 5 29 16 WZW 1013,0 10 0,0
20.07.2017 21:00:00 18,7 14,4 18,1 14 8 29 16 WZW 1012,2 34 0,0
20.07.2017 20:00:00 18,3 15,9 18,0 14 8 - - ZW 1011,9 34 0,0
20.07.2017 19:00:00 19,5 15,1 19,5 22 12 50 27 WZW 1011,3 47 0,0
20.07.2017 18:00:00 23,2 13,7 23,0 26 14 43 23 WZW 1009,7 10 0,0
20.07.2017 17:00:00 24,8 14,2 25,9 26 14 43 23 WZW 1009,2 10 0,0
20.07.2017 16:00:00 25,1 13,3 26,2 28 15 40 21 ZW 1008,7 10 0,0
20.07.2017 15:00:00 24,2 14,1 24,8 16 9 40 21 WZW 1008,8 10 0,0
20.07.2017 14:00:00 23,0 13,6 23,0 28 15 - - ZW 1009,0 10 0,0
20.07.2017 13:00:00 23,5 12,4 24,4 22 12 43 23 WZW 1008,6 10 0,0
20.07.2017 12:00:00 21,3 16,8 21,8 13 7 36 19 W 1008,7 10 0,0
20.07.2017 11:00:00 22,9 17,8 22,7 22 12 - - ZW 1008,7 10 0,0
20.07.2017 10:00:00 21,5 18,3 21,8 18 10 29 16 ZZW 1008,7 24 0,0
20.07.2017 09:00:00 20,8 18,4 20,5 18 10 25 14 ZZW 1008,2 15 0,0
20.07.2017 08:00:00 20,0 18,7 19,2 18 10 - - Z 1008,3 10 0,0
20.07.2017 07:00:00 18,8 17,9 18,4 13 7 18 10 Z 1008,3 10 0,0
20.07.2017 06:00:00 19,1 18,4 18,5 11 6 18 10 ZO 1008,2 5 0,0
20.07.2017 05:00:00 18,8 18,0 18,4 8 4 - - NNO 1007,6 7 2,2
20.07.2017 04:00:00 19,0 18,3 18,3 5 3 14 8 NW 1008,0 10 4,1
20.07.2017 03:00:00 19,8 18,0 18,4 4 2 7 4 - 1008,5 10 0,0
20.07.2017 02:00:00 20,5 18,2 19,9 4 2 - - - 1008,6 10 0,0
20.07.2017 01:00:00 21,9 18,3 21,4 9 5 18 10 WNW 1008,7 10 0,0
20.07.2017 00:00:00 23,1 17,9 21,2 13 7 14 8 ZZW 1008,0 10 0,0
19.07.2017 23:00:00 22,5 18,3 20,5 8 4 - - ZO 1008,0 10 0,0
19.07.2017 22:00:00 22,4 18,1 21,1 11 6 29 16 OZO 1007,9 10 0,0
19.07.2017 21:00:00 23,1 17,7 22,1 9 5 25 14 ZO 1007,9 10 0,0
19.07.2017 20:00:00 24,2 18,0 24,1 18 10 - - O 1007,6 10 0,0
19.07.2017 19:00:00 25,6 19,2 25,6 21 11 22 12 O 1008,4 10 0,0
19.07.2017 18:00:00 25,6 19,0 27,5 15 8 22 12 OZO 1008,6 10 0,0
19.07.2017 17:00:00 23,9 19,8 24,9 13 7 - - ZZO 1009,0 10 0,3
19.07.2017 16:00:00 19,7 17,8 19,3 8 4 29 16 Z 1010,2 10 1,7
19.07.2017 15:00:00 21,5 16,5 20,4 13 7 47 25 ZW 1010,6 10 0,8
19.07.2017 14:00:00 28,4 15,5 28,1 16 9 - - ZW 1010,1 10 0,0
19.07.2017 13:00:00 28,9 17,8 29,4 16 9 40 21 W 1009,1 10 0,0
19.07.2017 12:00:00 31,0 17,9 32,5 15 8 29 16 ZZW 1009,4 10 0,0
19.07.2017 11:00:00 29,3 16,5 31,2 15 8 25 14 Z 1008,9 10 0,0
19.07.2017 10:00:00 27,5 16,2 28,5 18 10 29 16 Z 1008,5 10 0,0
19.07.2017 09:00:00 25,4 17,1 26,0 11 6 22 12 Z 1009,4 10 0,0
19.07.2017 08:00:00 23,2 17,3 21,7 8 4 - - O 1009,3 10 0,0
19.07.2017 07:00:00 20,4 16,4 18,6 5 3 11 6 OZO 1009,6 10 0,0
19.07.2017 06:00:00 20,4 15,8 17,5 5 3 11 6 OZO 1010,2 10 0,0
19.07.2017 05:00:00 20,5 15,9 18,1 9 5 14 8 O 1010,2 10 0,0
19.07.2017 04:00:00 20,9 15,9 18,7 9 5 14 8 O 1010,8 10 0,0
19.07.2017 03:00:00 21,4 15,7 19,7 13 7 22 12 O 1011,2 10 0,0
19.07.2017 02:00:00 21,5 15,1 20,0 13 7 - - O 1011,6 10 0,0
19.07.2017 01:00:00 21,8 14,2 20,2 16 9 25 14 O 1012,4 10 0,0
19.07.2017 00:00:00 22,4 13,9 20,7 16 9 25 14 ONO 1012,9 10 0,0
18.07.2017 23:00:00 22,6 14,2 21,0 15 8 - - ONO 1013,0 10 0,0
18.07.2017 22:00:00 23,8 14,2 22,1 16 9 25 14 ONO 1013,5 10 0,0
18.07.2017 21:00:00 26,0 14,8 25,2 16 9 25 14 ONO 1013,7 10 0,0
18.07.2017 20:00:00 27,6 14,5 27,4 18 10 - - ONO 1014,0 10 0,0
18.07.2017 19:00:00 28,3 14,2 28,7 21 11 32 18 ONO 1014,1 10 0,0
18.07.2017 18:00:00 28,7 14,6 29,6 18 10 25 14 ONO 1014,4 10 0,0
18.07.2017 17:00:00 28,4 13,9 29,9 21 11 - - ONO 1015,0 10 0,0
18.07.2017 16:00:00 27,9 13,6 30,3 14 8 29 16 ONO 1015,9 30 0,0
18.07.2017 15:00:00 27,5 13,6 30,4 16 9 29 16 ONO 1016,6 10 0,0
18.07.2017 14:00:00 26,7 12,2 29,5 18 10 - - ONO 1017,4 10 0,0
18.07.2017 13:00:00 25,9 13,1 29,2 21 11 29 16 ONO 1018,0 10 0,0
18.07.2017 12:00:00 24,6 12,0 27,0 22 12 32 18 ONO 1018,6 10 0,0
18.07.2017 11:00:00 23,7 13,6 25,6 21 11 32 18 ONO 1019,1 10 0,0
18.07.2017 10:00:00 21,5 14,7 23,9 15 8 25 14 ONO 1019,5 10 0,0
18.07.2017 09:00:00 19,2 14,1 20,9 13 7 22 12 NO 1019,8 10 0,0
18.07.2017 08:00:00 15,8 12,5 15,9 15 8 18 10 NO 1020,1 10 0,0
18.07.2017 07:00:00 14,7 11,5 14,3 11 6 14 8 ONO 1020,2 10 0,0
18.07.2017 06:00:00 13,5 11,1 12,1 15 8 14 8 ONO 1020,2 10 0,0
18.07.2017 05:00:00 13,7 11,1 12,2 11 6 14 8 NO 1020,3 10 0,0
18.07.2017 04:00:00 14,1 11,1 12,4 11 6 14 8 ONO 1020,7 10 0,0
18.07.2017 03:00:00 14,8 11,0 13,4 11 6 18 10 ONO 1021,1 10 0,0
18.07.2017 02:00:00 15,7 10,9 14,0 13 7 18 10 NO 1021,4 10 0,0
18.07.2017 01:00:00 16,1 10,8 14,5 13 7 18 10 ONO 1021,7 10 0,0
18.07.2017 00:00:00 17,4 10,5 15,2 13 7 18 10 NO 1021,8 10 0,0
17.07.2017 23:00:00 16,7 10,9 15,3 13 7 22 12 NO 1022,0 10 0,0
17.07.2017 22:00:00 18,9 10,1 17,4 13 7 22 12 NNO 1021,7 10 0,0
17.07.2017 21:00:00 20,4 10,7 19,6 13 7 22 12 NNO 1021,5 10 0,0
17.07.2017 20:00:00 22,0 11,5 22,2 15 8 22 12 NNO 1021,3 10 0,0
17.07.2017 19:00:00 22,9 11,8 23,9 13 7 22 12 N 1021,3 10 0,0
17.07.2017 18:00:00 22,9 13,3 24,7 13 7 22 12 N 1021,5 10 0,0
17.07.2017 17:00:00 23,7 14,4 25,6 11 6 18 10 N 1021,8 10 0,0
17.07.2017 16:00:00 23,2 13,8 24,8 4 2 14 8 - 1022,3 10 0,0
17.07.2017 15:00:00 22,6 13,9 25,2 5 3 18 10 - 1022,7 10 0,0
17.07.2017 14:00:00 21,1 14,1 24,6 9 5 18 10 O 1023,2 10 0,0
17.07.2017 13:00:00 20,1 16,0 21,6 13 7 22 12 NO 1023,2 10 0,0
17.07.2017 12:00:00 18,0 15,4 18,1 13 7 22 12 NO 1023,2 10 0,0
17.07.2017 11:00:00 16,9 15,6 17,4 13 7 29 16 NNO 1023,2 10 0,8
17.07.2017 10:00:00 16,7 16,1 17,2 16 9 25 14 NO 1023,1 9 0,4
17.07.2017 09:00:00 17,3 16,9 17,4 5 3 11 6 NW 1022,6 3,4 0,8
17.07.2017 08:00:00 17,4 16,6 17,4 8 4 11 6 ZZW 1022,3 8 0,0
17.07.2017 07:00:00 16,7 16,0 16,6 9 5 11 6 ZZW 1022,0 9 0,0
17.07.2017 06:00:00 16,4 15,8 16,2 8 4 11 6 ZW 1021,7 10 0,0
17.07.2017 05:00:00 16,5 15,8 16,1 9 5 11 6 ZW 1021,7 10 0,0
17.07.2017 04:00:00 16,0 15,6 14,1 8 4 11 6 ZZW 1021,7 10 0,0
17.07.2017 03:00:00 16,3 15,5 14,2 5 3 11 6 Z 1021,8 10 0,0
17.07.2017 02:00:00 16,6 15,7 15,1 8 4 11 6 ZZW 1022,1 10 0,0
17.07.2017 01:00:00 17,4 15,8 15,7 5 3 7 4 Z 1022,2 10 0,0
17.07.2017 00:00:00 18,2 16,1 16,4 5 3 7 4 ZW 1022,6 10 0,0
16.07.2017 23:00:00 19,2 16,3 18,3 4 2 11 6 Z 1022,6 10 0,0
16.07.2017 22:00:00 20,0 16,3 19,4 5 3 11 6 WZW 1022,8 10 0,0
16.07.2017 21:00:00 20,3 16,3 19,8 5 3 14 8 W 1022,6 10 0,0
16.07.2017 20:00:00 21,6 16,3 22,8 8 4 14 8 ZW 1022,5 10 0,0
16.07.2017 19:00:00 21,5 16,8 21,8 9 5 18 10 W 1022,8 10 0,0
16.07.2017 18:00:00 21,0 16,4 21,4 9 5 18 10 WZW 1023,0 10 0,0
16.07.2017 17:00:00 21,2 16,8 21,4 13 7 25 14 W 1023,3 10 0,0
16.07.2017 16:00:00 21,2 16,7 22,7 13 7 22 12 W 1023,3 10 0,0
16.07.2017 15:00:00 20,6 16,9 21,8 11 6 22 12 W 1023,2 10 0,0
16.07.2017 14:00:00 20,5 16,5 21,5 11 6 22 12 WZW 1023,3 10 0,0
16.07.2017 13:00:00 20,8 16,5 22,7 15 8 25 14 ZW 1023,5 10 0,0
16.07.2017 12:00:00 19,4 15,9 20,8 15 8 22 12 WZW 1023,7 10 0,0
16.07.2017 11:00:00 18,0 15,2 18,6 16 9 22 12 ZW 1023,6 5 0,0
16.07.2017 10:00:00 17,9 14,5 18,4 16 9 22 12 ZW 1023,5 10 0,0
16.07.2017 09:00:00 17,4 14,1 17,8 15 8 22 12 ZW 1023,3 10 0,0
16.07.2017 08:00:00 17,2 13,7 17,5 18 10 25 14 ZW 1023,2 10 0,0
16.07.2017 07:00:00 16,6 13,8 16,3 16 9 22 12 ZW 1022,8 10 0,0
16.07.2017 06:00:00 16,4 14,1 16,0 13 7 18 10 ZW 1022,7 10 0,0
16.07.2017 05:00:00 16,3 14,0 15,8 11 6 18 10 ZW 1022,7 10 0,0
16.07.2017 04:00:00 16,0 14,6 15,9 9 5 14 8 ZZW 1022,8 10 0,0
16.07.2017 03:00:00 15,9 14,2 15,7 13 7 14 8 Z 1022,9 10 0,0
16.07.2017 02:00:00 15,6 13,9 15,5 13 7 29 16 WZW 1023,1 10 0,0
16.07.2017 01:00:00 17,7 12,9 17,1 5 3 22 12 WZW 1023,2 10 0,0
16.07.2017 00:00:00 18,3 12,0 17,6 13 7 14 8 Z 1023,0 10 0,0
15.07.2017 23:00:00 19,0 11,4 18,1 11 6 14 8 Z 1022,8 10 0,0
15.07.2017 22:00:00 19,1 11,7 18,2 8 4 22 12 Z 1022,9 10 0,0
15.07.2017 21:00:00 19,7 11,1 19,0 5 3 11 6 Z 1022,8 10 0,0
15.07.2017 20:00:00 20,2 11,3 19,9 8 4 18 10 ZW 1022,9 10 0,0
15.07.2017 19:00:00 20,6 10,4 21,4 8 4 18 10 W 1022,6 10 0,0
15.07.2017 18:00:00 20,8 11,1 21,8 11 6 22 12 W 1022,9 10 0,0
15.07.2017 17:00:00 20,5 10,4 21,0 11 6 22 12 W 1023,3 10 0,0
15.07.2017 16:00:00 20,6 10,7 21,7 9 5 25 14 WZW 1023,2 10 0,0
15.07.2017 15:00:00 21,0 11,3 21,7 13 7 22 12 WZW 1023,1 10 0,0
15.07.2017 14:00:00 20,6 10,3 23,3 11 6 22 12 W 1023,2 10 0,0
15.07.2017 13:00:00 19,6 10,5 22,1 8 4 18 10 - 1023,3 10 0,0
15.07.2017 12:00:00 18,3 10,7 20,5 8 4 18 10 - 1023,5 10 0,0
15.07.2017 11:00:00 17,4 11,2 19,2 9 5 22 12 W 1023,3 10 0,0
15.07.2017 10:00:00 17,0 12,0 18,7 9 5 14 8 WZW 1023,2 10 0,0
15.07.2017 09:00:00 14,9 12,0 15,6 8 4 18 10 WZW 1023,2 10 0,0
15.07.2017 08:00:00 13,6 11,9 12,8 11 6 14 8 ZZW 1022,7 10 0,0
15.07.2017 07:00:00 12,5 11,2 11,8 8 4 11 6 ZW 1022,5 10 0,0
15.07.2017 06:00:00 10,7 10,1 10,1 8 4 14 8 ZW 1022,1 10 0,0

tt = temperatuur
td = dauwpunt
tt 5cm = temperatuur 5cm
ff = windsnelheid
fx = windstoten
dd = windrichting
ppp = luchtdruk
vv = zicht
rr = neerslag

Weerstations in de omgeving